TimeCST,TemperatureF,Dew PointF,Humidity,Sea Level PressureIn,VisibilityMPH,Wind Direction,Wind SpeedMPH,Gust SpeedMPH,PrecipitationIn,Events,Conditions,WindDirDegrees,DateUTC
12:15 AM,14.0,12.2,93,29.89,10.0,NNW,9.2,-,N/A,,Overcast,330,2013-02-22 06:15:00
12:35 AM,10.4,10.4,100,29.90,10.0,NW,8.1,-,N/A,,Mostly Cloudy,320,2013-02-22 06:35:00
12:55 AM,8.6,8.6,100,29.91,10.0,WNW,6.9,-,N/A,,Scattered Clouds,290,2013-02-22 06:55:00
1:15 AM,5.0,3.2,92,29.91,10.0,West,4.6,-,N/A,,Clear,280,2013-02-22 07:15:00
1:35 AM,3.2,3.2,100,29.91,10.0,West,9.2,-,N/A,,Clear,270,2013-02-22 07:35:00
1:55 AM,5.0,3.2,92,29.92,10.0,West,9.2,-,N/A,,Clear,270,2013-02-22 07:55:00
2:15 AM,5.0,5.0,100,29.92,10.0,WNW,8.1,-,N/A,,Clear,290,2013-02-22 08:15:00
2:35 AM,6.8,5.0,92,29.92,10.0,WNW,10.4,-,N/A,,Clear,290,2013-02-22 08:35:00
2:55 AM,8.6,6.8,92,29.91,10.0,WNW,9.2,-,N/A,,Mostly Cloudy,300,2013-02-22 08:55:00
3:15 AM,10.4,10.4,100,29.92,10.0,NW,8.1,-,N/A,,Overcast,310,2013-02-22 09:15:00
3:35 AM,12.2,10.4,92,29.91,10.0,WNW,5.8,-,N/A,Snow,Light Snow,300,2013-02-22 09:35:00
3:55 AM,12.2,10.4,92,29.91,10.0,NW,3.5,-,N/A,Snow,Light Snow,310,2013-02-22 09:55:00
4:15 AM,10.4,8.6,92,29.91,10.0,WNW,4.6,-,N/A,,Mostly Cloudy,300,2013-02-22 10:15:00
4:35 AM,6.8,5.0,92,29.91,10.0,West,4.6,-,N/A,,Clear,280,2013-02-22 10:35:00
4:55 AM,6.8,5.0,92,29.92,10.0,West,5.8,-,N/A,,Clear,270,2013-02-22 10:55:00
5:15 AM,3.2,3.2,100,29.92,10.0,West,9.2,-,N/A,,Clear,270,2013-02-22 11:15:00
5:35 AM,3.2,1.4,92,29.92,10.0,WNW,9.2,-,N/A,,Clear,290,2013-02-22 11:35:00
5:55 AM,1.4,1.4,100,29.93,10.0,West,10.4,-,N/A,,Clear,270,2013-02-22 11:55:00
6:15 AM,3.2,1.4,92,29.93,10.0,West,11.5,-,N/A,,Clear,270,2013-02-22 12:15:00
6:55 AM,3.2,3.2,100,29.93,10.0,WNW,11.5,-,N/A,,Clear,290,2013-02-22 12:55:00
7:15 AM,5.0,3.2,92,29.92,10.0,WNW,11.5,-,N/A,,Clear,290,2013-02-22 13:15:00
7:35 AM,5.0,3.2,92,29.93,10.0,West,6.9,-,N/A,,Clear,280,2013-02-22 13:35:00
7:55 AM,3.2,3.2,100,29.93,10.0,West,9.2,-,N/A,,Clear,280,2013-02-22 13:55:00
8:15 AM,5.0,3.2,92,29.95,10.0,West,6.9,-,N/A,,Clear,280,2013-02-22 14:15:00
8:35 AM,5.0,3.2,92,29.96,10.0,WSW,8.1,-,N/A,,Clear,250,2013-02-22 14:35:00
8:55 AM,6.8,5.0,92,29.97,10.0,WSW,5.8,-,N/A,,Clear,240,2013-02-22 14:55:00
9:15 AM,8.6,6.8,92,29.97,10.0,West,6.9,-,N/A,,Clear,270,2013-02-22 15:15:00
9:35 AM,10.4,10.4,100,29.97,10.0,West,9.2,-,N/A,,Clear,280,2013-02-22 15:35:00
9:55 AM,12.2,12.2,100,29.97,10.0,WNW,9.2,-,N/A,,Clear,300,2013-02-22 15:55:00
10:15 AM,14.0,14.0,100,29.97,10.0,WNW,9.2,-,N/A,,Clear,290,2013-02-22 16:15:00
10:35 AM,17.6,17.6,100,29.97,10.0,WNW,9.2,-,N/A,,Clear,290,2013-02-22 16:35:00
10:55 AM,19.4,17.6,93,29.98,10.0,West,6.9,-,N/A,,Clear,270,2013-02-22 16:55:00
11:15 AM,21.2,17.6,86,29.98,10.0,West,6.9,-,N/A,,Clear,280,2013-02-22 17:15:00
11:35 AM,23.0,19.4,86,29.99,10.0,WNW,10.4,-,N/A,,Clear,290,2013-02-22 17:35:00
11:55 AM,23.0,21.2,93,29.99,10.0,WNW,11.5,-,N/A,,Clear,300,2013-02-22 17:55:00
12:15 PM,24.8,21.2,86,29.99,10.0,WNW,9.2,-,N/A,,Clear,300,2013-02-22 18:15:00
12:35 PM,24.8,21.2,86,29.98,10.0,NW,9.2,-,N/A,,Clear,310,2013-02-22 18:35:00
12:55 PM,26.6,23.0,86,29.98,10.0,WNW,9.2,-,N/A,,Clear,300,2013-02-22 18:55:00
1:15 PM,26.6,23.0,86,29.98,10.0,WNW,6.9,-,N/A,,Clear,290,2013-02-22 19:15:00
1:35 PM,28.4,23.0,80,29.98,10.0,West,8.1,-,N/A,,Clear,280,2013-02-22 19:35:00
1:55 PM,28.4,23.0,80,29.96,10.0,WNW,8.1,-,N/A,,Clear,290,2013-02-22 19:55:00
2:15 PM,28.4,24.8,86,29.96,10.0,WNW,8.1,-,N/A,,Clear,290,2013-02-22 20:15:00
2:35 PM,30.2,24.8,80,29.96,10.0,WNW,6.9,-,N/A,,Clear,300,2013-02-22 20:35:00
2:55 PM,30.2,26.6,86,29.95,10.0,NW,8.1,-,N/A,,Clear,310,2013-02-22 20:55:00
3:15 PM,30.2,26.6,86,29.96,10.0,NNW,4.6,-,N/A,,Clear,330,2013-02-22 21:15:00
3:35 PM,30.2,26.6,86,29.96,10.0,NNW,5.8,-,N/A,,Clear,340,2013-02-22 21:35:00
3:55 PM,30.2,26.6,86,29.96,10.0,NNW,4.6,-,N/A,,Clear,330,2013-02-22 21:55:00
4:15 PM,30.2,26.6,86,29.96,10.0,NNW,5.8,-,N/A,,Clear,330,2013-02-22 22:15:00
4:35 PM,30.2,26.6,86,29.95,10.0,NNW,4.6,-,N/A,,Clear,340,2013-02-22 22:35:00
4:55 PM,30.2,26.6,86,29.95,10.0,NNW,5.8,-,N/A,,Clear,330,2013-02-22 22:55:00
5:15 PM,30.2,24.8,80,29.95,10.0,NNW,4.6,-,N/A,,Clear,330,2013-02-22 23:15:00
5:35 PM,28.4,24.8,86,29.95,10.0,NW,3.5,-,N/A,,Clear,320,2013-02-22 23:35:00
5:55 PM,28.4,24.8,86,29.95,10.0,Calm,Calm,-,N/A,,Clear,0,2013-02-22 23:55:00
6:15 PM,26.6,23.0,86,29.95,10.0,NW,4.6,-,N/A,,Clear,320,2013-02-23 00:15:00
6:35 PM,24.8,23.0,93,29.96,10.0,NW,3.5,-,N/A,,Clear,310,2013-02-23 00:35:00
6:55 PM,17.6,15.8,93,29.96,7.0,West,4.6,-,N/A,,Clear,280,2013-02-23 00:55:00
7:15 PM,19.4,19.4,100,29.97,7.0,West,3.5,-,N/A,,Clear,260,2013-02-23 01:15:00
7:35 PM,19.4,19.4,100,29.97,4.0,WSW,4.6,-,N/A,,Clear,250,2013-02-23 01:35:00
7:55 PM,17.6,17.6,100,29.97,2.5,SW,3.5,-,N/A,,Clear,230,2013-02-23 01:55:00
8:15 PM,14.0,14.0,100,29.97,0.5,WSW,5.8,-,N/A,Fog,Light Freezing Fog,250,2013-02-23 02:15:00
8:35 PM,12.2,12.2,100,29.96,0.2,Calm,Calm,-,N/A,Fog,Light Freezing Fog,0,2013-02-23 02:35:00
8:55 PM,12.2,12.2,100,29.97,0.5,SW,8.1,-,N/A,Fog,Light Freezing Fog,230,2013-02-23 02:55:00
9:15 PM,10.4,10.4,100,29.97,4.0,SW,5.8,-,N/A,,Clear,220,2013-02-23 03:15:00
9:35 PM,10.4,10.4,100,29.97,5.0,WSW,6.9,-,N/A,,Clear,240,2013-02-23 03:35:00
9:55 PM,10.4,10.4,100,29.97,5.0,West,4.6,-,N/A,,Clear,260,2013-02-23 03:55:00
10:15 PM,10.4,10.4,100,29.97,4.0,West,6.9,-,N/A,,Clear,270,2013-02-23 04:15:00
10:35 PM,10.4,10.4,100,29.97,4.0,West,8.1,-,N/A,,Clear,260,2013-02-23 04:35:00
10:55 PM,8.6,8.6,100,29.97,4.0,West,9.2,-,N/A,,Clear,270,2013-02-23 04:55:00
11:15 PM,8.6,8.6,100,29.96,5.0,West,6.9,-,N/A,,Clear,260,2013-02-23 05:15:00
11:35 PM,8.6,8.6,100,29.96,7.0,WSW,9.2,-,N/A,,Clear,250,2013-02-23 05:35:00
11:55 PM,8.6,6.8,92,29.95,7.0,WSW,6.9,-,N/A,,Clear,250,2013-02-23 05:55:00